GW2284 Weather Reports


time (UTC)temp
F
wind
direction
speed
knots
gust
knots
rain 1hr
in
rain 24hr
in
rain mn
in
humidity
%
barometer
mb
20260506233015 46 47 0.9 2.6 0.00 0.28 0.00 91 1010.6
20260506231513 47 46 0.9 3.5 0.00 0.28 0.00 91 1010.6
20260506230011 47 53 0.9 3.5 0.00 0.28 0.00 90 1010.6
20260506224509 47 45 0.0 3.5 0.00 0.28 0.00 90 1010.5
20260506223005 48 53 0.0 3.5 0.00 0.28 0.00 90 1010.5
20260506221500 48 53 0.0 1.7 0.00 0.28 0.00 90 1010.3
20260506220100 49 53 0.9 2.6 0.00 0.28 0.00 89 1010.1
20260506214556 49 49 0.0 1.7 0.00 0.28 0.28 90 1010.0
20260506213111 50 47 1.7 3.5 0.00 0.28 0.28 90 1010.0
20260506211549 50 63 0.0 3.5 0.00 0.28 0.28 89 1009.9
20260506210049 50 55 1.7 2.6 0.00 0.28 0.28 89 1009.8
20260506204547 51 59 0.0 2.6 0.00 0.28 0.28 89 1009.7
20260506203047 52 57 0.0 2.6 0.00 0.28 0.28 89 1009.5
20260506201543 52 56 0.9 2.6 0.00 0.28 0.28 88 1009.2
20260506200043 53 55 0.0 3.5 0.00 0.28 0.28 87 1008.9
20260506194546 54 73 0.9 2.6 0.00 0.28 0.28 87 1008.5
20260506193042 54 52 0.0 3.5 0.00 0.28 0.28 87 1008.1
20260506191541 55 80 0.9 3.5 0.00 0.28 0.28 86 1007.8
20260506190038 56 157 0.0 3.5 0.00 0.28 0.28 85 1007.4
20260506184547 56 180 1.7 3.5 0.00 0.28 0.28 83 1007.0
20260506183051 57 133 0.0 2.6 0.00 0.28 0.28 82 1006.7
20260506181512 58 159 0.0 4.3 0.00 0.28 0.28 78 1006.3
20260506180005 59 74 0.9 1.7 0.00 0.28 0.28 80 1005.9
20260506174502 60 60 0.9 2.6 0.00 0.28 0.28 78 1005.7
20260506173002 61 288 0.9 2.6 0.00 0.28 0.28 73 1005.6
20260506171605 61 223 0.0 1.7 0.00 0.28 0.28 71 1005.5
20260506170100 62 233 2.6 6.1 0.00 0.28 0.28 71 1005.5
20260506164613 63 248 3.5 7.0 0.00 0.28 0.28 68 1005.3
20260506163058 63 143 0.9 5.2 0.00 0.28 0.28 67 1005.2
20260506161555 63 211 0.9 3.5 0.00 0.28 0.28 71 1005.3
20260506160100 62 118 0.0 3.5 0.00 0.28 0.28 68 1005.4
20260506154555 62 146 0.9 6.1 0.00 0.28 0.28 71 1005.4
20260506153110 62 101 1.7 6.1 0.00 0.28 0.28 71 1005.4
20260506151551 62 58 1.7 5.2 0.00 0.28 0.28 71 1005.6
20260506150058 63 132 0.9 5.2 0.00 0.28 0.28 65 1005.4
20260506144619 63 115 2.6 7.0 0.00 0.28 0.28 68 1005.5
20260506143022 64 155 3.5 8.7 0.00 0.28 0.28 67 1005.4
20260506141514 65 107 4.3 7.8 0.00 0.28 0.28 69 1005.5
20260506140016 64 132 1.7 7.0 0.00 0.28 0.28 67 1005.6
20260506134511 63 109 1.7 6.1 0.00 0.28 0.28 70 1005.9
20260506133012 65 180 2.6 6.1 0.00 0.28 0.28 68 1006.0
20260506131546 64 118 1.7 10.4 0.00 0.28 0.28 71 1006.0
20260506130037 62 238 2.6 8.7 0.00 0.28 0.28 73 1005.9
20260506124534 63 224 2.6 6.1 0.00 0.28 0.28 73 1005.9
20260506123034 61 124 2.6 10.4 0.00 0.28 0.28 75 1006.0
20260506121533 62 90 2.6 9.6 0.00 0.28 0.28 74 1005.8
20260506120038 62 101 2.6 8.7 0.00 0.28 0.28 74 1005.8
20260506114609 61 116 2.6 6.1 0.00 0.28 0.28 73 1005.9
20260506113059 60 83 2.6 6.1 0.00 0.28 0.28 77 1006.0
20260506111528 61 127 0.9 8.7 0.00 0.28 0.28 78 1006.0
20260506110025 59 90 2.6 7.0 0.00 0.28 0.28 80 1006.1
20260506104518 59 127 1.7 7.0 0.00 0.28 0.28 80 1006.3
20260506103017 59 144 1.7 5.2 0.01 0.28 0.28 81 1006.6
20260506101517 58 215 1.7 5.2 0.01 0.28 0.28 81 1006.4
20260506100016 59 241 1.7 7.8 0.01 0.28 0.28 79 1006.5
20260506094511 59 174 0.9 6.1 0.01 0.28 0.28 79 1006.6
20260506093009 58 143 2.6 7.0 0.00 0.28 0.28 79 1006.7
20260506091505 58 139 2.6 7.8 0.00 0.28 0.28 84 1006.7
20260506090107 57 84 1.7 7.0 0.00 0.28 0.28 85 1006.8
20260506084529 56 89 0.9 5.2 0.00 0.28 0.28 82 1006.8
20260506083013 57 29 0.9 4.3 0.00 0.28 0.28 79 1006.8
20260506081509 56 322 2.6 5.2 0.00 0.28 0.28 82 1006.9
20260506073004 53 227 1.7 5.2 0.00 0.28 0.28 91 1007.3
20260506071606 51 313 0.9 2.6 0.00 0.28 0.28 92 1007.3
20260506061513 50 109 0.0 0.9 0.04 0.28 0.28 92 1007.9
20260506044524 50 140 0.0 3.5 0.15 0.24 0.21 92 1008.0
20260506043101 50 123 0.0 1.7 0.13 0.19 0.16 92 1007.9
20260506041602 50 124 0.9 2.6 0.09 0.13 0.10 92 1008.1
20260506040057 50 105 1.7 3.5 0.06 0.11 0.08 92 1008.1
20260506034520 50 164 0.9 2.6 0.05 0.21 0.06 92 1008.1
20260506033009 50 165 0.0 0.0 0.00 0.17 0.02 92 1008.3
20260506031509 50 167 0.0 0.0 0.00 0.17 0.02 92 1008.4
20260506030017 50 167 0.0 0.0 0.00 0.27 0.02 92 1008.6
20260506024553 50 167 0.0 0.0 0.00 0.27 0.02 92 1009.0
20260506023030 50 167 0.0 1.7 0.00 0.27 0.02 92 1009.1
20260506021528 50 165 1.7 2.6 0.00 0.27 0.02 92 1009.2
20260506020059 50 98 0.0 0.9 0.00 0.27 0.02 92 1009.0
20260506014513 50 98 0.0 1.7 0.01 0.28 0.02 92 1009.4
20260506013013 51 98 0.0 1.7 0.01 0.28 0.02 92 1009.4
20260506011506 51 95 0.9 1.7 0.02 0.28 0.02 92 1009.4
20260506010040 51 95 0.0 2.6 0.02 0.30 0.02 92 1009.8
20260506004524 51 96 0.9 1.7 0.01 0.28 0.01 92 1010.2
20260506003018 51 96 0.0 1.7 0.01 0.28 0.01 92 1010.5
20260506001513 51 95 0.0 0.9 0.01 0.28 0.01 92 1010.7
20260506000009 51 95 0.0 0.9 0.00 0.28 0.00 92 1011.0
20260505234505 51 95 0.0 2.6 0.00 0.28 0.00 92 1011.1